CT2IRK-11 Weather Reports


time (UTC)temp
C
wind
direction
speed
KPH
gust
KPH
rain 1hr
cm
rain 24hr
cm
rain mn
cm
humidity
%
barometer
mb
20260510125005 21 193 25.7 33.8 0.00 2.90 0.46 48 1003.2
20260510124005 21 166 14.5 35.4 0.00 2.90 0.46 47 1003.2
20260510123006 21 215 20.9 32.2 0.00 2.90 0.46 45 1003.2
20260510122006 20 184 22.5 33.8 0.00 2.90 0.46 50 1003.2
20260510120005 21 169 19.3 37.0 0.00 2.90 0.46 49 1003.3
20260510114007 20 216 24.1 29.0 0.00 2.90 0.46 54 1003.3
20260510113005 20 209 20.9 33.8 0.00 2.90 0.46 58 1003.3
20260510112005 20 214 20.9 29.0 0.03 2.90 0.46 56 1003.5
20260510111006 19 184 25.7 37.0 0.03 2.90 0.46 58 1003.4
20260510110005 20 197 20.9 29.0 0.03 2.90 0.46 58 1003.3
20260510105005 20 183 14.5 25.7 0.03 2.90 0.46 55 1003.3
20260510104005 19 252 16.1 24.1 0.03 2.90 0.46 60 1003.3
20260510103005 18 202 14.5 22.5 0.25 2.90 0.46 63 1003.4
20260510101005 18 215 19.3 29.0 0.30 2.87 0.43 68 1003.4
20260510095005 15 232 8.0 16.1 0.30 2.87 0.43 91 1003.5
20260510094004 14 270 16.1 20.9 0.30 2.87 0.43 91 1003.6
20260510093005 15 187 9.7 24.1 0.08 2.64 0.20 84 1003.4
20260510091005 18 177 12.9 19.3 0.00 2.57 0.13 66 1003.3
20260510090005 18 246 16.1 19.3 0.00 2.57 0.13 68 1003.2
20260510085005 17 195 12.9 19.3 0.00 2.57 0.13 68 1003.2
20260510084005 17 189 11.3 20.9 0.00 2.57 0.13 69 1003.3
20260510083005 16 135 14.5 20.9 0.00 2.57 0.13 71 1003.2
20260510082005 16 217 16.1 19.3 0.00 2.57 0.13 72 1003.4
20260510074005 16 172 8.0 11.3 0.03 2.59 0.13 76 1003.4
20260510073005 15 142 0.0 8.0 0.10 2.62 0.13 80 1003.3
20260510072004 15 172 0.0 8.0 0.10 2.62 0.13 82 1003.2
20260510071004 12 195 3.2 9.7 0.10 2.64 0.13 89 1003.1
20260510065005 11 190 9.7 19.3 0.10 2.67 0.13 95 1003.2
20260510064005 11 223 12.9 33.8 0.08 2.64 0.10 95 1003.5
20260510063005 13 182 14.5 29.0 0.00 2.59 0.03 91 1002.8
20260510062005 13 180 11.3 19.3 0.00 2.64 0.03 89 1002.6
20260510061005 13 167 9.7 16.1 0.00 2.72 0.03 91 1002.3
20260510060005 13 160 9.7 16.1 0.00 2.77 0.03 91 1002.2
20260510055005 12 164 9.7 14.5 0.00 2.82 0.03 94 1002.2
20260510054004 12 127 12.9 16.1 0.00 2.82 0.03 94 1002.2
20260510053004 12 134 8.0 12.9 0.00 2.82 0.03 96 1002.2
20260510052005 12 171 6.4 11.3 0.00 2.82 0.03 95 1002.0
20260510051006 12 138 3.2 12.9 0.00 2.82 0.03 94 1002.0
20260510044006 13 194 11.3 19.3 0.00 2.82 0.03 95 1002.0
20260510043006 13 201 4.8 16.1 0.00 2.82 0.03 96 1001.8
20260510041006 13 137 9.7 20.9 0.00 2.87 0.03 95 1001.7
20260510040006 13 146 14.5 19.3 0.00 2.97 0.03 94 1001.6
20260510035006 13 151 12.9 14.5 0.00 2.97 0.03 91 1001.6
20260510034006 13 193 12.9 16.1 0.00 3.07 0.03 92 1001.7
20260510033005 12 193 9.7 16.1 0.00 3.07 0.03 93 1001.6
20260510032005 12 158 9.7 16.1 0.00 3.07 0.03 96 1001.7
20260510030006 12 179 12.9 19.3 0.00 3.07 0.03 99 1001.7
20260510025006 12 160 9.7 14.5 0.00 3.07 0.03 99 1001.7
20260510024005 12 180 4.8 12.9 0.00 3.07 0.03 99 1001.7
20260510023006 12 130 9.7 16.1 0.00 3.07 0.03 99 1001.8
20260510022006 12 158 11.3 16.1 0.00 3.07 0.03 99 1001.9
20260510021006 12 158 14.5 20.9 0.00 3.07 0.03 99 1001.8
20260510020005 12 149 8.0 16.1 0.00 3.07 0.03 99 1001.9
20260510015006 12 136 9.7 19.3 0.00 3.07 0.03 99 1001.9
20260510014005 12 196 14.5 22.5 0.00 3.07 0.03 99 1002.2
20260510013005 12 180 12.9 16.1 0.00 3.07 0.03 99 1002.1
20260510012005 12 160 9.7 16.1 0.00 3.07 0.03 99 1002.3
20260510011005 12 147 8.0 16.1 0.00 3.07 0.03 99 1002.4
20260510010006 12 190 6.4 12.9 0.00 3.07 0.03 99 1002.5
20260510005006 12 191 11.3 14.5 0.00 3.07 0.03 99 1002.5
20260510004005 12 163 8.0 16.1 0.00 3.07 0.03 99 1002.6
20260510003005 12 159 9.7 20.9 0.00 3.07 0.03 99 1002.7
20260510002005 13 149 9.7 19.3 0.00 3.10 0.03 99 1002.9
20260510001006 13 180 14.5 19.3 0.00 3.10 0.03 99 1002.7
20260510000005 13 174 11.3 14.5 0.03 3.10 0.03 99 1002.8
20260509234005 12 169 6.4 9.7 0.64 3.10 0.03 99 1002.9
20260509233005 12 178 1.6 3.2 0.97 3.10 0.03 99 1003.0
20260509232005 12 177 0.0 4.8 1.85 3.10 0.03 99 1002.8
20260509231005 12 166 3.2 14.5 2.03 3.10 0.03 99 1003.0
20260509230007 12 162 9.7 16.1 2.03 3.07 0.00 99 1003.2
20260509223005 12 179 8.0 25.7 1.09 2.13 2.13 96 1003.3
20260509222006 14 178 4.8 22.5 0.36 1.40 1.40 97 1003.1
20260509221005 15 155 8.0 14.5 0.05 1.09 1.09 91 1002.8
20260509220005 15 204 11.3 16.1 0.00 1.04 1.04 87 1002.8
20260509215005 15 183 9.7 20.9 0.00 1.04 1.04 85 1002.7
20260509214006 15 158 12.9 16.1 0.00 1.04 1.04 85 1002.6
20260509212006 15 117 9.7 14.5 0.00 1.09 1.04 85 1002.5
20260509211006 15 174 9.7 16.1 0.00 1.12 1.04 85 1002.4
20260509210005 15 169 11.3 14.5 0.00 1.14 1.04 85 1002.2
20260509205005 15 173 11.3 16.1 0.00 1.17 1.04 85 1002.1
20260509204005 15 198 6.4 12.9 0.00 1.19 1.04 85 1002.0
20260509203005 15 178 9.7 12.9 0.00 1.19 1.04 85 1001.8
20260509202005 15 182 9.7 14.5 0.00 1.22 1.04 85 1001.7
20260509201006 15 179 8.0 16.1 0.00 1.22 1.04 87 1001.5
20260509200005 15 177 11.3 16.1 0.00 1.22 1.04 87 1001.4
20260509195005 16 180 4.8 14.5 0.00 1.22 1.04 87 1001.3
20260509194006 16 169 3.2 14.5 0.00 1.22 1.04 87 1001.3
20260509193005 16 193 8.0 12.9 0.00 1.22 1.04 88 1001.2
20260509192005 16 181 9.7 14.5 0.00 1.22 1.04 85 1001.0
20260509191006 16 175 11.3 14.5 0.00 1.22 1.04 84 1000.8
20260509190006 16 171 9.7 14.5 0.00 1.22 1.04 83 1000.6
20260509185005 16 197 9.7 14.5 0.00 1.22 1.04 82 1000.6
20260509184005 16 173 11.3 16.1 0.00 1.22 1.04 83 1000.6
20260509183005 17 206 11.3 16.1 0.00 1.22 1.04 80 1000.4
20260509182005 16 191 14.5 20.9 0.00 1.22 1.04 82 1000.5
20260509180005 16 197 14.5 20.9 0.00 1.22 1.04 82 1000.2
20260509175006 16 180 9.7 16.1 0.00 1.22 1.04 76 1000.2
20260509174005 17 182 8.0 16.1 0.05 1.22 1.04 78 1000.2
20260509173005 16 190 9.7 12.9 0.10 1.22 1.04 80 1000.2
20260509172005 16 174 8.0 12.9 0.13 1.22 1.04 80 999.9
20260509171005 15 158 9.7 14.5 0.13 1.22 1.04 88 1000.0
20260509170005 15 184 8.0 16.1 0.13 1.22 1.04 92 999.9
20260509165005 15 185 8.0 19.3 0.13 1.22 1.04 95 1000.2
20260509164006 15 177 14.5 19.3 0.08 1.17 0.99 93 1000.3
20260509163005 15 179 9.7 14.5 0.03 1.12 0.94 88 999.9
20260509162005 15 248 11.3 25.7 0.00 1.09 0.91 82 999.9
20260509160005 15 238 9.7 19.3 0.03 1.09 0.91 81 999.3
20260509155007 16 224 8.0 12.9 0.03 1.09 0.91 84 999.1
20260509154111 16 191 11.3 16.1 0.03 1.09 0.91 84 998.9
20260509153009 16 197 11.3 20.9 0.03 1.09 0.91 84 998.6
20260509152006 16 180 16.1 24.1 0.03 1.09 0.91 86 998.4
20260509151005 16 248 19.3 25.7 0.00 1.07 0.89 80 998.3
20260509150005 17 180 19.3 33.8 0.00 1.07 0.89 79 998.3
20260509145005 18 205 25.7 33.8 0.05 1.07 0.89 74 998.2
20260509143005 18 180 17.7 22.5 0.25 1.07 0.89 79 998.2
20260509142005 17 202 14.5 25.7 0.25 1.07 0.89 81 998.3
20260509140006 17 188 11.3 16.1 0.25 1.07 0.89 85 998.0
20260509135005 17 217 9.7 24.1 0.20 1.02 0.84 83 998.0
20260509132005 20 195 19.3 25.7 0.00 0.81 0.64 57 997.5
20260509131005 21 202 17.7 27.4 0.00 0.81 0.64 56 997.6